Grazzanise, Italy

1:48 AM CET on December 05, 2016 (GMT +0100)
Grazzanise Mil

Weather History for LIRM - October, 2013

Change the Weather History Date:

Friday, October 11, 2013

  Actual Average (LIRN) Record (LIRN)
Temperature  
Mean Temperature 70 °F -  
Max Temperature 79 °F 72 °F 84 °F (2001)
Min Temperature 60 °F 56 °F 50 °F (1999)
Cooling Degree Days 4    
Growing Degree Days 20 (Base 50)    
Moisture  
Dew Point 64 °F    
Average Humidity 86    
Maximum Humidity 100    
Minimum Humidity 77    
Precipitation  
Precipitation 0.08 in - - ()
Sea Level Pressure  
Sea Level Pressure 29.91 in    
Wind  
Wind Speed 3 mph ()    
Max Wind Speed 12 mph    
Max Gust Speed -    
Visibility 6.5 miles    
Events Rain    
Averages and records for this station are not official NWS values.
T = Trace of Precipitation, MM = Missing Value Source: Averaged Metar Reports

Daily Weather History Graph

Daily Weather History Graph

Search for Another Location

Airport or City:

Trip Planner

Search our weather history database for the weather conditions in past years. The results will help you decide how hot, cold, wet, or windy it might be!

Date:

Astronomy

Oct. 11, 2013 Rise Set
Actual Time 7:10 AM CEST 6:29 PM CEST
Civil Twilight 6:43 AM CEST 6:56 PM CEST
Nautical Twilight 6:11 AM CEST 7:28 PM CEST
Astronomical Twilight 5:39 AM CEST 8:00 PM CEST
Moon 1:40 PM CEST (10/11) 11:53 PM CEST (10/11)
Length of Visible Light 12h 13m
Length of Day
11h 18m
Waxing Crescent, 44% of the Moon is Illuminated
Oct 11
Waxing Crescent
Oct 12
First Quarter
Oct 19
Full
Oct 27
Last Quarter
Nov 3
New

Hourly Weather History & Observations

Time (CEST) Temp. Dew Point Humidity Pressure Visibility Wind Dir Wind Speed Gust Speed Precip Events Conditions
12:55 AM 66.2 °F 62.6 °F 88% 29.86 in 6.2 mi East 2.3 mph - N/A   Mostly Cloudy
1:55 AM 66.2 °F 60.8 °F 83% 29.86 in 6.2 mi East 2.3 mph - N/A   Mostly Cloudy
2:00 AM 66 °F 61 °F 80% 29.86 in 6 mi East 2.3 mph - -   Partly Cloudy
2:55 AM 62.6 °F 57.2 °F 82% 29.86 in 6.2 mi Calm Calm - N/A   Scattered Clouds
3:55 AM 62.6 °F 57.2 °F 82% 29.86 in 6.2 mi NNE 2.3 mph - N/A   Scattered Clouds
4:55 AM 62.6 °F 59.0 °F 88% 29.86 in 6.2 mi NE 2.3 mph - N/A   Mostly Cloudy
5:00 AM 63 °F 59 °F 81% 29.86 in 6 mi NE 2.3 mph - -   Partly Cloudy
5:55 AM 60.8 °F 57.2 °F 88% 29.86 in 6.2 mi NE 3.5 mph - N/A   Scattered Clouds
6:55 AM 60.8 °F 55.4 °F 82% 29.86 in 4.3 mi NE 2.3 mph - N/A   Scattered Clouds
7:55 AM 60.8 °F 55.4 °F 82% 29.86 in 3.1 mi North 2.3 mph - N/A   Scattered Clouds
8:00 AM 61 °F 56 °F 78% 29.87 in 3 mi North 2.3 mph - -   Mist
8:55 AM 68.0 °F 62.6 °F 83% 29.89 in 5.0 mi NE 2.3 mph - N/A   Scattered Clouds
9:55 AM 68.0 °F 64.4 °F 88% 29.89 in 6.2 mi NNW 6.9 mph - N/A   Scattered Clouds
10:55 AM 75.2 °F 69.8 °F 83% 29.89 in 6.2 mi SSW 10.4 mph - N/A   Mostly Cloudy
11:00 AM 75 °F 70 °F 79% 29.91 in 16 mi SSW 10.4 mph - -   Mostly Cloudy
11:55 AM 75.2 °F 71.6 °F 89% 29.92 in 6.2 mi SSW 11.5 mph - N/A   Scattered Clouds
12:55 PM 73.4 °F 69.8 °F 88% 29.92 in 6.2 mi West 8.1 mph - N/A Rain Light Rain
1:55 PM 75.2 °F 71.6 °F 89% 29.92 in 6.2 mi West 6.9 mph - N/A   Scattered Clouds
2:00 PM 75 °F 71 °F 84% 29.92 in 6 mi West 6.9 mph - - Rain Light Rain
2:55 PM 73.4 °F 69.8 °F 88% 29.92 in 6.2 mi West 4.6 mph - N/A Rain Light Rain
3:55 PM 75.2 °F 69.8 °F 83% 29.92 in 6.2 mi West 4.6 mph - N/A   Scattered Clouds
4:55 PM 77.0 °F 71.6 °F 83% 29.92 in 6.2 mi West 3.5 mph - N/A   Scattered Clouds
5:00 PM 77 °F 71 °F 77% 29.92 in 9 mi West 3.5 mph - -   Partly Cloudy
5:55 PM 75.2 °F 69.8 °F 83% 29.92 in 6.2 mi West 4.6 mph - N/A   Partly Cloudy
6:55 PM 71.6 °F 68.0 °F 88% 29.95 in 6.2 mi WSW 3.5 mph - N/A   Partly Cloudy
7:55 PM 69.8 °F 69.8 °F 100% 29.98 in 6.2 mi WSW 3.5 mph - N/A   Partly Cloudy
8:00 PM 70 °F 69 °F 97% 29.98 in 9 mi WSW 3.5 mph - -   Partly Cloudy
8:55 PM 68.0 °F 66.2 °F 94% 29.98 in - WSW 3.5 mph - N/A   Clear
9:55 PM 68.0 °F 64.4 °F 88% 30.01 in - Calm Calm - N/A   Clear
10:55 PM 62.6 °F 59.0 °F 88% 30.01 in - Calm Calm - N/A   Clear
11:00 PM 63 °F 59 °F 84% 30.02 in 9 mi Calm Calm - -  
11:55 PM 62.6 °F 59.0 °F 88% 30.01 in - Calm Calm - N/A   Clear